Regional Weather Roundup
Issued by NWS Wakefield, VA

Home | Current Version | Previous Version | Graphics & Text | Print | Product List | Glossary On
Versions: 1 2 3 4 5 6 7 8 9 10 11 12 13 14 15 16 17 18 19 20 21 22 23 24 25 26
000
ASUS41 KAKQ 270415
RWRAKQ

REGIONAL WEATHER ROUNDUP
NATIONAL WEATHER SERVICE WAKEFIELD VA
1200 AM EDT SAT AUG 27 2016

Note: "fair" indicates few or no clouds below 12,000 feet with no
significant weather and/or obstructions to visibility. * = Denotes
station may not report precipitation (e.g., rain,snow,etc.),
thunder or fog.

VAZ042-051-052>054-056-270500-
NORTHERN VIRGINIA

CITY           SKY/WX    TMP DP  RH WIND       PRES   REMARKS
WASH NATIONAL  PTCLDY    85  72  65 CALM      30.09S
DULLES         PTCLDY    81  71  71 N3        30.10S
FORT BELVOIR   MOCLDY    76  73  90 CALM      30.08S
QUANTICO       PTCLDY    80  76  87 W3        30.09R
FREDERICKSBRG* PTCLDY    80  78  94 CALM      30.07S
STAFFORD*      PTCLDY    76  74  95 CALM      30.13R
WARRENTON      CLEAR     76  70  84 CALM      30.10S
CULPEPER*      CLEAR     78  77  99 N3        30.10S
MANASSAS*      CLEAR     79  77  94 CALM      30.09S
LEESBURG*      CLEAR     81  73  78 N3        30.12S
WINCHESTER     MOCLDY    77  66  69 NW3       30.14S
FRONT ROYAL*   FAIR      73  72  94 CALM      30.13S
LURAY*         FAIR     N/A N/A N/A CALM      30.15S
$$

VAZ048-049-060>072-079>083-270500-
CENTRAL AND SOUTH CENTRAL VIRGINIA

CITY           SKY/WX    TMP DP  RH WIND       PRES   REMARKS
RICHMOND       PTCLDY    80  74  81 CALM      30.07S
CHESTERFIELD*  FAIR      79  63  57 NW3       30.09S
PETERSBURG*    CLEAR    N/A N/A N/A CALM      30.08S
HANOVER        MOCLDY    78  74  87 CALM      30.09S
TAPPAHANNOCK*  CLEAR     77  77 100 CALM      30.09R
QUINTON*       FAIR      78  75  91 E6        30.07S
CHARLOTTSVILLE CLEAR     76  73  91 CALM      30.11S
GORDONSVILLE*  FAIR      75  73  94 CALM      30.10R
ORANGE*          N/A     75  75 100 CALM      30.12S
LOUISA*          N/A     79  77  94 CALM      30.09S FOG
BUMPASS*       CLOUDY    78  78  99 CALM      30.10R
FARMVILLE*     CLEAR    N/A N/A N/A CALM      30.09R
CREWE*         FAIR      74  74 100 CALM      30.09S
FORT PICKETT*  NOT AVBL
CHASE CITY*    FAIR      76  74  95 CALM      30.10R
CLARKSVILLE*   FAIR      77  77 100 CALM      30.09R
SOUTH HILL*    CLEAR     74  74  99 CALM      30.14S
LAWRENCEVILLE* FAIR      76  75  96 CALM      30.08S
EMPORIA*         N/A     73  73 100 CALM      30.09S
$$

VAZ088>098-270500-
SOUTHEAST VIRGINIA

CITY           SKY/WX    TMP DP  RH WIND       PRES   REMARKS
NORFOLK        CLEAR     82  75  79 S5        30.06S
VIRGINIA BEACH CLEAR     85  73  67 CALM      30.06R
NORFOLK NAVAL  PTCLDY    79  74  84 CALM      30.08R
WEST POINT*    PTCLDY    76  74  92 CALM      30.08S
SALUDA*        MOCLDY    76  74  94 CALM      30.07R
NEWPORT NEWS   CLEAR     77  73  87 CALM      30.07S
LANGLEY AFB    CLEAR     79  74  86 CALM      30.06S
FORT EUSTIS    CLEAR     78  73  84 CALM      30.04S
WILLIAMSBURG*  CLEAR     79  75  89 CALM      30.08S
HR EXEC AP*    FAIR      73  70  88 CALM      30.09S
FRANKLIN*      CLEAR     77  74  93 CALM      30.07S
US460-WAKEFLD  CLEAR     77  74  90 CALM      30.07S FOG
$$

VAZ020-022-025-037-045-270500-
WEST CENTRAL AND SOUTHWEST VIRGINIA

CITY           SKY/WX    TMP DP  RH WIND       PRES   REMARKS
STAUNTON*      CLEAR     71  69  93 CALM      30.19R
WAYNESBORO*    FAIR      72  70  94 SW3       30.18S
HOT SPRINGS VA CLEAR     74  63  68 N3        30.31F
LYNCHBURG      CLEAR     75  73  93 CALM      30.14S
DANVILLE       CLEAR     75  73  93 CALM      30.11R
SOUTH BOSTON*  FAIR      76  74  95 CALM      30.09S
MARTINSVILLE   CLEAR     70  69  96 CALM      30.16S FOG
ROANOKE        CLEAR     79  72  79 CALM      30.16S
BLACKSBURG     MOCLDY    72  71  95 CALM      30.24F
DUBLIN*        CLEAR     72  71  96 W3        30.23F
MARION*        CLEAR     69  68  96 CALM      30.27F FOG
HILLSVILLE*    CLEAR     71  70  96 CALM      30.25S
RICHLANDS*     FAIR      74  69  86 CALM      30.25F
WISE*          CLEAR     73  61  64 CALM      30.26S
ABINGDON*      CLEAR     75  69  81 CALM      30.21F
$$

MDZ021>025-VAZ099-100-270500-
SOUTHERN MARYLAND AND THE DELMARVA PENINSULA

CITY           SKY/WX    TMP DP  RH WIND       PRES   REMARKS
PATUXENT RIVER CLEAR     76  72  87 CALM      30.07R
BAY BRIDGE APT CLEAR     81  72  74 CALM      30.08R
LEONARDTOWN    CLEAR     75  72  88 CALM      30.09S
DOVER          CLEAR     77  75  95 NW5       30.06S
GEORGETOWN     CLEAR     75  72  90 CALM      30.08R
EASTON         CLEAR     77  77  98 CALM      30.11S
CAMBRIDGE      CLEAR     73  72  94 CALM      30.07S
SALISBURY      CLEAR     75  73  93 CALM      30.07R
OCEAN CITY     CLEAR     75  72  90 CALM      30.07R
WALLOPS ISLAND CLEAR     78  72  81 CALM      30.07S
ACCOMACK*        N/A     75  73  91 CALM      30.07S FOG
$$

NCZ012>017-030>032-270500-
NORTH CENTRAL AND EASTERN NORTH CAROLINA

CITY           SKY/WX    TMP DP  RH WIND       PRES   REMARKS
ROANOKE RAPIDS FAIR      75  73  94 CALM      30.08S
RALEIGH        PTCLDY    83  73  72 S5        30.10R
ELIZABETH CITY CLEAR     77  73  87 CALM      30.08R
AHOSKIE*       CLEAR     75  74  97 CALM      30.08S
EDENTON*       CLEAR     81  74  81 S6        30.08S
CURRITUCK*       N/A     80  75  86 CALM      30.08R
KILL DEVIL HLS CLEAR     80  76  89 SW3       30.07R
MANTEO         CLEAR     80  74  81 SW9       30.08S
CAPE HATTERAS  CLEAR     81  71  71 S7        30.08S
TARBORO*       FAIR      79  75  88 CALM      30.09S
GOLDSBORO      CLEAR    N/A N/A N/A MISG        N/A
WASHINGTON     CLEAR     77  73  86 SW3       30.09R
GREENVILLE     CLEAR     81  75  83 SW8       30.10R
NEW BERN       CLEAR     75  72  90 CALM      30.10R
WILMINGTON     CLEAR     76  71  85 CALM      30.08S
$$

VAZ048-270500-
ELSEWHERE

CITY           SKY/WX    TMP DP  RH WIND       PRES   REMARKS
HARRISBURG PA  CLEAR     74  71  91 N5        30.10R
BALTIMORE      PTCLDY    76  71  85 CALM      30.09R
ANNAPOLIS      CLEAR     81  76  84 NW3       30.08R
ANDREWS AFB    PTCLDY    77  72  85 CALM      30.09R
PHILADELPHIA   CLEAR     81  65  58 N6        30.09R
HENDERSON NC   CLEAR     75  72  89 CALM      30.10R
GREENSBORO     CLEAR     80  71  74 CALM      30.12R
ROCKY MOUNT    CLEAR     76  75  97 CALM      30.09R
$$

VAZ100-270500-
MARINE

STATION/POSITION TIME  TEMP    WIND        PRES    WAVE   SWELL
                       AIR SEA DIR/SP/G            HT/PER HT/PER
                 (UTC) (F)     (DEG/KT/KT) (MB)    (FT/S) (FT/S)
BRANDYWINE LGT   0306   83     350/ 10/ 11   N/A
CAPE MAY NJ      0300   81 77   CALM  /  3 1017.4R
LEWES DE         0300   81 76  300/  6/  6 1017.7R
OCEAN-CITY-INLET 0300   78 75  260/  2/  2 1018.3R
WACHAPREAGUE VA  0300   80 86  260/  1/  3 1018.1R
THOMAS POINT MD  0400   82 83  330/  2/  3 1020.0R
GOOSES REEF MD   0400   85 83  360/  4/  4 1018.9R   0
COVE POINT MD    0300   83     360/  2/  2 1018.7R
SOLOMONS ISLAND  0300   82 85   CALM  /  1   N/A
PINEY POINT MD   0300           CALM  /  1   N/A
POTOMAC MD       0400   83 84   10/  2/  2 1017.2R   1
CAMBRIDGE MD     0300   83 85   70/  2/  2 1017.4R
LEWISETTA VA     0300   83 84  230/  2/  3 1017.8R
RAPPAHANNOCK LGT 0300          220/  4/  4 1018.6R
STINGRAY PT      0400   84 84  190/  2/  4 1018.6R   0
YORK RVR RNG VA  0300   84     170/  2/  3 1017.5R
YORKTOWN VA      0300   82 84     CALM     1017.6R
JAMESTOWN VA     0400   81 86   40/  2/  2   N/A     0
DOMINION TERM VA 0300   87     120/  2/  3 1018.1R
KIPTOPEKE VA     0300      80  130/  2/  2   N/A
CHES BAY BRIDGE  0300   84 80  140/  4/  5 1017.8R
CAPE HENRY VA    0300   83     200/  5/  6   N/A
WILLOUBY STN VA  0300   85      CALM  /  1   N/A
CAPE HENRY BUOY  0312      79                N/A     2/ 8
1ST LANDING BUOY 0400   81 79  120/  2/  4 1017.8R   1/ 5
CAPE CHARLES BUO 0326      78                N/A     2/ 7
OFFSHORE WE BUOY 0321      79                N/A     2/ 7
64NM E OF VA BCH 0350   81 81  220/ 10/ 12 1017.8S   2/ 7   2/ 7
DUCK PIER NC     0300   81 77  200/ 12/ 14 1017.5F
44100 DUCK FRF   0305      79                N/A     2/ 7
44056 DUCK FRF   0311      79                N/A     2/ 8
OREGON INLET NC  0300   81 82  180/  8/ 10 1018.2F
HATTERAS NC      0300   81 83  160/  5/  6 1018.3S
DIAMOND SHLS NC  0350   82 85  160/  6/  8 1018.8R   2/ 8   2/ 8
CAPE LOOKOUT NC  0400   81     120/  5/  6 1018.4R
$$




USA.gov is the U.S. government's official web portal to all federal, state and local government web resources and services.